Weather History for KISW - January, 2013

Change the Weather History Date:

Saturday, January 19, 2013

  Actual Average Record
Temperature  
Mean Temperature 27 °F -  
Max Temperature 44 °F 24 °F - (-1)
Min Temperature 8 °F 2 °F - (-1)
Degree Days  
Heating Degree Days 38    
Moisture  
Dew Point 21 °F    
Average Humidity 70    
Maximum Humidity 89    
Minimum Humidity 53    
Precipitation  
Precipitation 0.02 in - - ()
Sea Level Pressure  
Sea Level Pressure 29.75 in    
Wind  
Wind Speed 10 mph (West)    
Max Wind Speed 32 mph    
Max Gust Speed 47 mph    
Visibility 9 miles    
Events Snow    
Averages and records for this station are not official NWS values.
T = Trace of Precipitation, MM = Missing Value Source: NWS Daily Summary

Daily Weather History Graph

Daily Weather History Graph

Search for Another Location

Airport or City:

Trip Planner

Search our weather history database for the weather conditions in past years. The results will help you decide how hot, cold, wet, or windy it might be!

Date:

Astronomy

Jan. 19, 2013 Rise Set
Actual Time 7:29 AM CST 4:51 PM CST
Civil Twilight 6:57 AM CST 5:23 PM CST
Nautical Twilight 6:21 AM CST 5:59 PM CST
Astronomical Twilight 5:47 AM CST 6:33 PM CST
Moon 11:20 AM CST (1/19) 1:00 AM CST (1/19)
Length of Visible Light 10h 26m
Length of Day
9h 22m
First Quarter, 57% of the Moon is Illuminated
Jan 19
First Quarter
Jan 26
Full
Feb 3
Last Quarter
Feb 10
New
Feb 17
First Quarter

Hourly Weather History & Observations

Time (CST) Temp. Windchill Dew Point Humidity Pressure Visibility Wind Dir Wind Speed Gust Speed Precip Events Conditions
12:54 AM 32.0 °F 27.5 °F 27.0 °F 82% 29.81 in 10.0 mi West 4.6 mph - N/A   Clear
1:54 AM 30.9 °F 27.5 °F 27.0 °F 85% 29.83 in 10.0 mi WSW 3.5 mph - N/A   Clear
2:54 AM 30.9 °F - 27.0 °F 85% 29.83 in 10.0 mi Calm Calm - N/A   Clear
3:54 AM 30.0 °F - 27.0 °F 88% 29.82 in 10.0 mi Calm Calm - N/A   Overcast
4:54 AM 28.9 °F - 26.1 °F 89% 29.81 in 10.0 mi Calm Calm - N/A   Overcast
5:54 AM 30.9 °F 26.2 °F 27.0 °F 85% 29.79 in 10.0 mi South 4.6 mph - N/A   Overcast
6:54 AM 32.0 °F 28.7 °F 28.0 °F 85% 29.78 in 10.0 mi South 3.5 mph - N/A   Overcast
7:54 AM 33.1 °F 28.7 °F 28.9 °F 85% 29.77 in 10.0 mi SSW 4.6 mph - 0.00 in   Overcast
8:54 AM 33.1 °F 30.0 °F 28.9 °F 85% 29.75 in 10.0 mi SSW 3.5 mph - N/A   Clear
9:54 AM 36.0 °F 30.3 °F 30.9 °F 82% 29.72 in 10.0 mi South 6.9 mph - N/A   Clear
10:54 AM 39.0 °F 32.3 °F 30.9 °F 73% 29.71 in 10.0 mi SSW 10.4 mph - N/A   Clear
11:54 AM 43.0 °F 36.8 °F 30.9 °F 62% 29.66 in 10.0 mi SW 11.5 mph - N/A   Clear
12:54 PM 44.1 °F 39.5 °F 30.0 °F 58% 29.63 in 10.0 mi West 8.1 mph - N/A   Scattered Clouds
1:54 PM 44.1 °F 36.8 °F 30.0 °F 58% 29.64 in 10.0 mi West 16.1 mph 25.3 mph N/A   Mostly Cloudy
2:54 PM 44.1 °F 38.6 °F 28.9 °F 55% 29.63 in 10.0 mi West 10.4 mph 19.6 mph N/A   Mostly Cloudy
3:54 PM 41.0 °F 31.9 °F 28.0 °F 60% 29.66 in 10.0 mi West 19.6 mph 33.4 mph N/A   Mostly Cloudy
4:54 PM 37.0 °F 28.9 °F 26.1 °F 65% 29.67 in 10.0 mi West 12.7 mph 23.0 mph N/A   Overcast
5:41 PM 33.8 °F 22.8 °F 24.8 °F 70% 29.62 in 2.5 mi West 18.4 mph 39.1 mph 0.00 in Snow Light Snow
5:54 PM 34.0 °F 23.0 °F 27.0 °F 75% 29.65 in 4.0 mi West 18.4 mph 32.2 mph 0.01 in Snow Light Snow
6:07 PM 33.8 °F 21.6 °F 26.6 °F 75% 29.61 in 2.0 mi West 23.0 mph 36.8 mph 0.00 in Snow Light Snow
6:23 PM 33.8 °F 22.2 °F 24.8 °F 70% 29.61 in 8.0 mi West 20.7 mph 33.4 mph 0.01 in Snow Light Snow
6:54 PM 26.1 °F 9.1 °F 12.9 °F 58% 29.72 in 10.0 mi WNW 32.2 mph 47.2 mph 0.01 in   Partly Cloudy
7:54 PM 19.0 °F 1.3 °F 5.0 °F 54% 29.81 in 10.0 mi WNW 25.3 mph 39.1 mph N/A   Overcast
8:54 PM 14.0 °F -6.2 °F 1.0 °F 56% 29.88 in 10.0 mi WNW 27.6 mph 39.1 mph 0.00 in   Overcast
9:19 PM 12.2 °F -8.9 °F 1.4 °F 62% 29.86 in 8.0 mi NW 28.8 mph 38.0 mph 0.00 in   Overcast
9:50 PM 10.4 °F -9.5 °F -2.2 °F 57% 29.88 in 10.0 mi WNW 23.0 mph 38.0 mph 0.00 in   Mostly Cloudy
9:54 PM 10.0 °F -11.9 °F -4.0 °F 53% 29.94 in 10.0 mi WNW 28.8 mph 36.8 mph 0.00 in   Mostly Cloudy
10:54 PM 8.1 °F -13.0 °F -4.0 °F 58% 29.99 in 10.0 mi WNW 24.2 mph 42.6 mph N/A   Overcast